NOAA 16 DEB, 42333

Orbit data source: Space-Track

NOAA 16 DEB, 42333 is space debris in SSO originally from a launch on Thu, 21 Sep 2000 UTC launched from the Air Force Western Test Range (AFWTR). Debris objects in space refer to the collection of defunct objects orbiting the Earth. Examples of debris include non-operational satellites, rocket bodies, and fragments generated from explosions, collisions, or faulty payload assembly.

Loading next visibility...
Identifier
42333, 2000-055PZ
Orbit
SSO
Country
Flag of USUS
Related business
Manufacturer
Unknown
Mission
Spacecraft
Bus & Motor
Unknown
Mass
Unknown
Launch date (UTC)
2000-09-21 (25 years ago)
Launch vehicle
Unknown
Launch site
Air Force Western Test Range (AFWTR)
Object type
Payload
Rocket body
Debris
Shape & HBR
Unknown shape, 0.1 m
Radar Cross Section
Small (<0.1 m²)

Expand to show TLE details & history
Last TLE update: 3 days ago

TLE from 3 days ago
0 NOAA 16 DEB
1 42333U 00055PZ  25307.26096630  .00005459  00000-0  22848-2 0  9993
2 42333  98.9597  65.2152 0017562 161.6768 198.5048 14.26382727497761
Epoch: 2025-11-03T06:15Z
TLE epoch observation values (Epoch: 2025-11-03T06:15:47.488Z)
Latitude
0.00004°
Longitude
-71.49756°
Altitude
818.728 km
Speed
7.438 km/s
True Right ascension
04h 20m 51s
True Declination
0° 00' 00"
Sunlit
Object was in full shadow at epoch
Visualization orbit readout
Latitude
Unknown
Longitude
Unknown
Altitude
Unknown
Speed
Unknown
Apparent Right ascension
Unknown
Apparent Declination
Unknown
Sunlit
N/A
Visualization observer readout
Local Sidereal Time
17:26:03
Azimuth
Unknown
Elevation
Unknown
Doppler factor
Unknown
Orbital elements
Apogee altitude
813.618 km
Perigee altitude
788.402 km
Semi-major axis
7,179.147 km
Eccentricity
0.00176
Inclination
98.9597°
RAAN
65.2152°
Arg. of periapsis
161.6768°
True anomaly
198.44106°
Mean anomaly
198.5048°
Eccentric anomaly
198.47292°
Mean motion
3.56807 °/min
Orbital period
100.89 mins
BSTAR
0.0022848
Loading maneuver chart data...
Computing Atmospheric mass density...
Loading historical data...
Loading historical data...
Loading historical data...
Loading historical data...
Loading historical data...
Loading historical data...
Loading historical data...

Documentation

Showing up to 5 results
|